Hourly Weather Bolshie Kovali

Today, 18 June, Friday

Time Temperature Precipitation Wind Pressure Humidity
00:00 +12°C° 0 mm 3 mps 753 mmHg 74%
01:00 +11°C° 0 mm 3 mps 753 mmHg 76%
02:00 +10°C° 0 mm 3 mps 754 mmHg 77%
03:00 +9°C° 0 mm 3 mps 754 mmHg 78%
04:00 +10°C° 0 mm 3 mps 755 mmHg 75%
05:00 +11°C° 0 mm 3 mps 755 mmHg 73%
06:00 +12°C° 0 mm 4 mps 755 mmHg 70%
07:00 +14°C° 0 mm 4 mps 755 mmHg 64%
08:00 +15°C° 0 mm 4 mps 756 mmHg 58%
09:00 +17°C° 0 mm 4 mps 756 mmHg 52%
10:00 +18°C° 0 mm 4 mps 756 mmHg 50%
11:00 +19°C° 0 mm 4 mps 756 mmHg 47%
12:00 +20°C° 0 mm 4 mps 756 mmHg 44%
13:00 +20°C° 0 mm 4 mps 756 mmHg 43%
14:00 +20°C° 0 mm 4 mps 756 mmHg 43%
15:00 +21°C° 0 mm 3 mps 756 mmHg 42%
16:00 +20°C° 0 mm 3 mps 756 mmHg 47%
17:00 +20°C° 0 mm 2 mps 756 mmHg 53%
18:00 +19°C° 0 mm 2 mps 756 mmHg 59%
19:00 +19°C° 0 mm 1 mps 756 mmHg 61%
20:00 +16°C° 0 mm 1 mps 756 mmHg 63%
21:00 +13°C° 0 mm 0 mps 756 mmHg 66%
22:00 +14°C° 0 mm 1 mps 756 mmHg 66%
23:00 +14°C° 0 mm 1 mps 756 mmHg 66%

Tomorrow, 19 June, Saturday

Time Temperature Precipitation Wind Pressure Humidity
00:00 +13°C° 0 mm 2 mps 756 mmHg 66%
01:00 +13°C° 0 mm 2 mps 756 mmHg 69%
02:00 +12°C° 0 mm 3 mps 756 mmHg 72%
03:00 +11°C° 0 mm 3 mps 756 mmHg 75%
04:00 +12°C° 0 mm 3 mps 756 mmHg 75%
05:00 +14°C° 0 mm 4 mps 756 mmHg 75%
06:00 +15°C° 0 mm 4 mps 756 mmHg 75%
07:00 +17°C° 0 mm 5 mps 755 mmHg 71%
08:00 +20°C° 0 mm 5 mps 755 mmHg 67%
09:00 +21°C° 0 mm 6 mps 755 mmHg 63%
10:00 +23°C° 0 mm 6 mps 755 mmHg 60%
11:00 +24°C° 0 mm 7 mps 754 mmHg 58%
12:00 +26°C° 0 mm 7 mps 754 mmHg 56%
13:00 +27°C° 0 mm 7 mps 753 mmHg 56%
14:00 +27°C° 0 mm 7 mps 753 mmHg 56%
15:00 +27°C° 0 mm 7 mps 753 mmHg 56%
16:00 +27°C° 0 mm 6 mps 752 mmHg 60%
17:00 +26°C° 0 mm 6 mps 752 mmHg 64%
18:00 +24°C° 0 mm 6 mps 752 mmHg 67%
19:00 +23°C° 0 mm 5 mps 752 mmHg 72%
20:00 +22°C° 0 mm 5 mps 752 mmHg 77%
21:00 +20°C° 0 mm 5 mps 752 mmHg 81%
22:00 +20°C° 0 mm 5 mps 752 mmHg 83%
23:00 +19°C° 0 mm 4 mps 752 mmHg 84%

Day after tomorrow, 20 June, Sunday

Time Temperature Precipitation Wind Pressure Humidity
00:00 +19°C° 0 mm 4 mps 752 mmHg 86%
01:00 +18°C° 0 mm 4 mps 752 mmHg 88%
02:00 +18°C° 0 mm 4 mps 752 mmHg 90%
03:00 +17°C° 0 mm 3 mps 752 mmHg 92%
04:00 +18°C° 0 mm 4 mps 752 mmHg 89%
05:00 +20°C° 0 mm 4 mps 752 mmHg 85%
06:00 +21°C° 0 mm 4 mps 753 mmHg 82%
07:00 +22°C° 0 mm 4 mps 753 mmHg 75%
08:00 +25°C° 0 mm 4 mps 753 mmHg 68%
09:00 +27°C° 0 mm 4 mps 753 mmHg 61%
10:00 +28°C° 0 mm 4 mps 753 mmHg 57%
11:00 +29°C° 0 mm 4 mps 753 mmHg 53%
12:00 +30°C° 0 mm 4 mps 753 mmHg 49%
13:00 +30°C° 0 mm 4 mps 753 mmHg 48%
14:00 +30°C° 0 mm 4 mps 753 mmHg 47%
15:00 +32°C° 0 mm 4 mps 752 mmHg 46%
16:00 +30°C° 0 mm 4 mps 752 mmHg 52%
17:00 +29°C° 0 mm 3 mps 753 mmHg 58%
18:00 +28°C° 0 mm 2 mps 753 mmHg 64%
19:00 +26°C° 0 mm 2 mps 753 mmHg 69%
20:00 +24°C° 0 mm 2 mps 753 mmHg 75%
21:00 +23°C° 0 mm 2 mps 753 mmHg 80%
22:00 +21°C° 0 mm 2 mps 753 mmHg 78%
23:00 +20°C° 0 mm 2 mps 753 mmHg 77%

21 June, Monday

Time Temperature Precipitation Wind Pressure Humidity
00:00 +20°C° 0 mm 2 mps 753 mmHg 75%
01:00 +20°C° 0 mm 2 mps 753 mmHg 73%
02:00 +20°C° 0 mm 2 mps 754 mmHg 71%
03:00 +20°C° 0 mm 2 mps 754 mmHg 69%
04:00 +20°C° 0.2 mm 2 mps 754 mmHg 74%
05:00 +20°C° 0.2 mm 2 mps 754 mmHg 79%
06:00 +20°C° 0.2 mm 2 mps 754 mmHg 84%
07:00 +23°C° 0.1 mm 2 mps 754 mmHg 78%
08:00 +25°C° 0.1 mm 2 mps 754 mmHg 73%
09:00 +27°C° 0.1 mm 3 mps 753 mmHg 67%
10:00 +28°C° 0.4 mm 3 mps 753 mmHg 63%
11:00 +29°C° 0.4 mm 3 mps 753 mmHg 58%
12:00 +30°C° 0.4 mm 3 mps 753 mmHg 54%
13:00 +30°C° 0 mm 4 mps 753 mmHg 53%
14:00 +30°C° 0 mm 4 mps 753 mmHg 53%
15:00 +30°C° 0 mm 5 mps 752 mmHg 52%
16:00 +29°C° 0 mm 5 mps 752 mmHg 56%
17:00 +28°C° 0 mm 4 mps 752 mmHg 60%
18:00 +28°C° 0 mm 4 mps 752 mmHg 64%
19:00 +26°C° 0 mm 4 mps 752 mmHg 71%
20:00 +24°C° 0 mm 3 mps 752 mmHg 77%
21:00 +22°C° 0 mm 3 mps 752 mmHg 84%
22:00 +21°C° 0 mm 3 mps 752 mmHg 85%
23:00 +21°C° 0 mm 3 mps 752 mmHg 87%

22 June, Tuesday

Time Temperature Precipitation Wind Pressure Humidity
00:00 +20°C° 0 mm 3 mps 752 mmHg 88%
01:00 +20°C° 0 mm 3 mps 752 mmHg 89%
02:00 +19°C° 0 mm 2 mps 752 mmHg 90%
03:00 +19°C° 0 mm 2 mps 752 mmHg 91%
04:00 +20°C° 0 mm 3 mps 752 mmHg 86%
05:00 +21°C° 0 mm 3 mps 752 mmHg 81%
06:00 +22°C° 0 mm 3 mps 752 mmHg 76%
07:00 +25°C° 0 mm 3 mps 752 mmHg 70%
08:00 +26°C° 0 mm 4 mps 752 mmHg 64%
09:00 +28°C° 0 mm 4 mps 752 mmHg 58%
10:00 +29°C° 0 mm 4 mps 752 mmHg 55%
11:00 +30°C° 0 mm 4 mps 752 mmHg 52%
12:00 +32°C° 0 mm 4 mps 752 mmHg 49%
13:00 +33°C° 0 mm 4 mps 751 mmHg 49%
14:00 +33°C° 0 mm 4 mps 751 mmHg 49%
15:00 +33°C° 0 mm 4 mps 751 mmHg 49%
16:00 +30°C° 0.1 mm 3 mps 751 mmHg 56%
17:00 +29°C° 0.1 mm 3 mps 751 mmHg 63%
18:00 +28°C° 0.1 mm 3 mps 751 mmHg 70%
19:00 +26°C° 0 mm 3 mps 751 mmHg 73%
20:00 +25°C° 0 mm 3 mps 751 mmHg 77%
21:00 +24°C° 0 mm 3 mps 751 mmHg 80%
22:00 +24°C° 0.1 mm 2 mps 751 mmHg 80%
23:00 +24°C° 0.1 mm 2 mps 751 mmHg 79%

23 June, Wednesday

Time Temperature Precipitation Wind Pressure Humidity
00:00 +23°C° 0.1 mm 1 mps 751 mmHg 79%
01:00 +23°C° 0 mm 1 mps 751 mmHg 81%
02:00 +22°C° 0 mm 1 mps 752 mmHg 82%
03:00 +22°C° 0 mm 1 mps 752 mmHg 83%
04:00 +22°C° 0 mm 1 mps 752 mmHg 80%
05:00 +23°C° 0 mm 1 mps 752 mmHg 77%
06:00 +24°C° 0 mm 2 mps 752 mmHg 74%
07:00 +25°C° 0 mm 2 mps 752 mmHg 69%
08:00 +26°C° 0 mm 2 mps 753 mmHg 65%
09:00 +27°C° 0 mm 2 mps 753 mmHg 60%
10:00 +28°C° 0 mm 2 mps 753 mmHg 57%
11:00 +29°C° 0 mm 2 mps 753 mmHg 54%
12:00 +30°C° 0 mm 2 mps 753 mmHg 51%
13:00 +30°C° 0 mm 2 mps 752 mmHg 50%
14:00 +30°C° 0 mm 2 mps 752 mmHg 48%
15:00 +31°C° 0 mm 2 mps 752 mmHg 47%
16:00 +30°C° 0 mm 2 mps 752 mmHg 53%
17:00 +29°C° 0 mm 2 mps 752 mmHg 58%
18:00 +28°C° 0 mm 1 mps 752 mmHg 64%
19:00 +26°C° 0 mm 1 mps 752 mmHg 71%
20:00 +24°C° 0 mm 1 mps 752 mmHg 78%
21:00 +21°C° 0 mm 1 mps 752 mmHg 85%
22:00 +21°C° 0 mm 1 mps 752 mmHg 85%
23:00 +21°C° 0 mm 1 mps 752 mmHg 85%
Show more